Pampa, TX

8:50 PM CDT on October 22, 2017 (GMT -0500)
Perry Lefors

Weather History for KPPA - January, 2014

Change the Weather History Date:

Wednesday, January 8, 2014

  Actual Average Record
Temperature  
Mean Temperature 31 °F -  
Max Temperature 38 °F 42 °F 75 °F (1965)
Min Temperature 24 °F 19 °F -3 °F (1988)
Degree Days  
Heating Degree Days 34    
Moisture  
Dew Point 20 °F    
Average Humidity 66    
Maximum Humidity 86    
Minimum Humidity 50    
Precipitation  
Precipitation 0.00 in - - ()
Sea Level Pressure  
Sea Level Pressure 30.01 in    
Wind  
Wind Speed 13 mph (North)    
Max Wind Speed 22 mph    
Max Gust Speed 30 mph    
Visibility 10 miles    
Events      
Averages and records for this station are not official NWS values.
T = Trace of Precipitation, MM = Missing Value Source: NWS Daily Summary

Daily Weather History Graph

Daily Weather History Graph

Search for Another Location

Airport or City:

Trip Planner

Search our weather history database for the weather conditions in past years. The results will help you decide how hot, cold, wet, or windy it might be!

Date:

Astronomy

Jan. 08, 2014 Rise Set
Actual Time 7:54 AM CST 5:47 PM CST
Civil Twilight 7:26 AM CST 6:15 PM CST
Nautical Twilight 6:54 AM CST 6:47 PM CST
Astronomical Twilight 6:23 AM CST 7:18 PM CST
Moon 12:35 PM CST (1/8) 1:08 AM CST (1/8)
Length of Visible Light 10h 49m
Length of Day
9h 53m
First Quarter, 56% of the Moon is Illuminated
Jan 8
First Quarter
Jan 15
Full
Jan 23
Last Quarter
Jan 30
New
Feb 6
First Quarter

Hourly Weather History & Observations

Time (CST) Temp. Windchill Dew Point Humidity Pressure Visibility Wind Dir Wind Speed Gust Speed Precip Events Conditions
12:15 AM 34.7 °F 25.5 °F 17.6 °F 50% 29.92 in 10.0 mi South 13.8 mph - N/A   Clear
12:35 AM 34.7 °F 25.5 °F 17.6 °F 50% 29.91 in 10.0 mi South 13.8 mph - N/A   Clear
12:55 AM 34.3 °F 24.2 °F 17.6 °F 50% 29.90 in 10.0 mi South 16.1 mph - N/A   Clear
1:15 AM 33.6 °F 23.3 °F 17.6 °F 52% 29.89 in 10.0 mi South 16.1 mph - N/A   Clear
1:35 AM 34.0 °F 23.8 °F 17.1 °F 50% 29.88 in 10.0 mi South 16.1 mph - N/A   Clear
1:55 AM 33.8 °F 23.9 °F 16.9 °F 50% 29.88 in 10.0 mi SSW 15.0 mph - N/A   Clear
2:15 AM 33.8 °F 24.3 °F 17.2 °F 51% 29.88 in 10.0 mi SSW 13.8 mph - N/A   Clear
2:35 AM 32.0 °F 21.6 °F 17.2 °F 55% 29.87 in 10.0 mi South 15.0 mph - N/A   Clear
2:55 AM 31.6 °F 22.1 °F 17.2 °F 55% 29.87 in 10.0 mi South 12.7 mph - N/A   Clear
3:15 AM 31.1 °F 20.5 °F 17.2 °F 57% 29.87 in 10.0 mi SSW 15.0 mph - N/A   Clear
3:35 AM 31.1 °F 20.9 °F 17.2 °F 57% 29.87 in 10.0 mi SSW 13.8 mph - N/A   Clear
3:55 AM 29.5 °F 18.8 °F 16.7 °F 59% 29.87 in 10.0 mi South 13.8 mph - N/A   Clear
4:15 AM 28.2 °F 18.9 °F 16.7 °F 62% 29.87 in 10.0 mi South 10.4 mph - N/A   Clear
4:35 AM 28.2 °F 18.3 °F 16.7 °F 62% 29.87 in 10.0 mi South 11.5 mph - N/A   Clear
4:55 AM 26.8 °F 17.1 °F 16.7 °F 66% 29.87 in 10.0 mi South 10.4 mph - N/A   Clear
5:15 AM 25.2 °F 15.1 °F 16.3 °F 69% 29.86 in 10.0 mi South 10.4 mph - N/A   Clear
5:35 AM 24.8 °F 16.1 °F 16.2 °F 70% 29.86 in 10.0 mi SSW 8.1 mph - N/A   Clear
5:55 AM 25.7 °F 18.0 °F 15.6 °F 66% 29.87 in 10.0 mi SW 6.9 mph - N/A   Clear
6:15 AM 25.2 °F 16.5 °F 15.1 °F 66% 29.87 in 10.0 mi West 8.1 mph - N/A   Clear
6:35 AM 28.4 °F 18.0 °F 16.0 °F 60% 29.87 in 10.0 mi WNW 12.7 mph - N/A   Clear
6:55 AM 29.1 °F 18.4 °F 19.2 °F 67% 29.89 in 10.0 mi NW 13.8 mph 19.6 mph N/A   Clear
7:15 AM 27.1 °F 18.9 °F 18.3 °F 69% 29.90 in 10.0 mi WNW 8.1 mph - N/A   Clear
7:35 AM 28.9 °F 18.2 °F 22.5 °F 77% 29.91 in 10.0 mi NW 13.8 mph - N/A   Clear
7:55 AM 27.9 °F 16.8 °F 22.3 °F 80% 29.92 in 10.0 mi NW 13.8 mph - N/A   Clear
8:15 AM 27.1 °F 14.9 °F 22.6 °F 83% 29.93 in 10.0 mi NW 16.1 mph 19.6 mph N/A   Clear
8:35 AM 27.5 °F 14.6 °F 22.8 °F 83% 29.94 in 10.0 mi NW 18.4 mph - N/A   Clear
8:55 AM 28.2 °F 15.9 °F 22.8 °F 80% 29.95 in 10.0 mi NW 17.3 mph 24.2 mph N/A   Clear
9:15 AM 28.8 °F 16.2 °F 22.8 °F 78% 29.96 in 10.0 mi NW 18.4 mph 23.0 mph N/A   Clear
9:35 AM 30.0 °F 17.9 °F 22.1 °F 72% 29.98 in 10.0 mi NNW 18.4 mph 23.0 mph N/A   Clear
9:55 AM 30.0 °F 17.5 °F 22.1 °F 72% 30.00 in 10.0 mi NNW 19.6 mph 25.3 mph N/A   Clear
10:15 AM 31.3 °F 19.5 °F 21.4 °F 67% 30.01 in 10.0 mi North 18.4 mph 26.5 mph N/A   Clear
10:35 AM 32.0 °F 19.8 °F 21.6 °F 65% 30.03 in 10.0 mi North 20.7 mph 25.3 mph N/A   Clear
10:55 AM 32.7 °F 20.4 °F 21.7 °F 64% 30.03 in 10.0 mi North 21.9 mph 29.9 mph N/A   Clear
11:15 AM 33.8 °F 21.9 °F 22.1 °F 62% 30.03 in 10.0 mi North 21.9 mph 26.5 mph N/A   Clear
11:35 AM 34.5 °F 23.4 °F 21.9 °F 60% 30.03 in 10.0 mi North 19.6 mph 28.8 mph N/A   Clear
11:55 AM 35.1 °F 24.1 °F 22.3 °F 60% 30.03 in 10.0 mi North 19.6 mph 24.2 mph N/A   Clear
12:15 PM 36.0 °F 25.6 °F 22.3 °F 58% 30.02 in 10.0 mi North 18.4 mph 25.3 mph N/A   Clear
12:35 PM 36.7 °F 26.6 °F 22.6 °F 57% 30.03 in 10.0 mi North 18.4 mph 25.3 mph N/A   Clear
12:55 PM 36.9 °F 26.5 °F 22.6 °F 56% 30.02 in 10.0 mi North 19.6 mph 27.6 mph N/A   Clear
1:15 PM 37.2 °F 27.0 °F 22.5 °F 55% 30.02 in 10.0 mi North 19.6 mph 26.5 mph N/A   Clear
1:35 PM 37.4 °F 27.8 °F 22.1 °F 54% 30.02 in 10.0 mi North 17.3 mph 24.2 mph N/A   Clear
1:55 PM 37.9 °F 28.2 °F 22.1 °F 53% 30.02 in 10.0 mi North 18.4 mph 24.2 mph N/A   Clear
2:15 PM 38.1 °F 28.8 °F 22.3 °F 53% 30.03 in 10.0 mi NNE 17.3 mph 21.9 mph N/A   Clear
2:35 PM 37.6 °F 30.0 °F 22.1 °F 54% 30.03 in 10.0 mi NNE 11.5 mph 27.6 mph N/A   Clear
2:55 PM 37.9 °F 29.6 °F 22.3 °F 53% 30.03 in 10.0 mi NNE 13.8 mph 21.9 mph N/A   Clear
3:15 PM 37.6 °F 27.1 °F 21.9 °F 53% 30.04 in 10.0 mi NNE 20.7 mph - N/A   Clear
3:35 PM 37.4 °F 27.8 °F 21.7 °F 53% 30.05 in 10.0 mi NE 17.3 mph - N/A   Clear
3:55 PM 37.4 °F 28.9 °F 21.2 °F 52% 30.05 in 10.0 mi NNE 13.8 mph - N/A   Clear
4:15 PM 36.9 °F 27.8 °F 21.2 °F 53% 30.05 in 10.0 mi NE 15.0 mph - N/A   Clear
4:35 PM 36.0 °F 27.1 °F 21.2 °F 55% 30.05 in 10.0 mi NNE 13.8 mph - N/A   Clear
4:55 PM 35.4 °F 26.4 °F 20.8 °F 55% 30.06 in 10.0 mi NE 13.8 mph - N/A   Clear
5:15 PM 34.0 °F 26.6 °F 20.8 °F 59% 30.07 in 10.0 mi NNE 9.2 mph - N/A   Clear
5:35 PM 32.2 °F 25.8 °F 20.3 °F 62% 30.08 in 10.0 mi NE 6.9 mph - N/A   Clear
5:55 PM 29.8 °F 24.9 °F 19.4 °F 65% 30.09 in 10.0 mi NNE 4.6 mph - N/A   Clear
6:15 PM 28.2 °F 21.0 °F 19.2 °F 69% 30.10 in 10.0 mi NNE 6.9 mph - N/A   Clear
6:35 PM 27.0 °F 19.5 °F 18.7 °F 71% 30.11 in 10.0 mi NNE 6.9 mph - N/A   Clear
6:55 PM 26.4 °F - 19.4 °F 75% 30.13 in 10.0 mi Calm Calm - N/A   Clear
7:15 PM 27.0 °F 23.0 °F 19.8 °F 74% 30.13 in 10.0 mi North 3.5 mph - N/A   Clear
7:35 PM 27.1 °F 20.7 °F 19.8 °F 74% 30.14 in 10.0 mi North 5.8 mph - N/A   Clear
7:55 PM 25.5 °F 16.9 °F 19.8 °F 79% 30.16 in 10.0 mi West 8.1 mph - N/A   Clear
8:15 PM 24.8 °F 17.9 °F 19.9 °F 82% 30.16 in 10.0 mi NW 5.8 mph - N/A   Clear
8:35 PM 24.8 °F 16.9 °F 21.0 °F 86% 30.16 in 10.0 mi NNW 6.9 mph - N/A   Clear
8:55 PM 25.3 °F 17.6 °F 21.6 °F 86% 30.16 in 10.0 mi North 6.9 mph - N/A   Mostly Cloudy
9:15 PM 25.7 °F 18.0 °F 21.6 °F 84% 30.16 in 10.0 mi North 6.9 mph - N/A   Scattered Clouds
9:35 PM 25.7 °F 18.0 °F 21.2 °F 83% 30.16 in 10.0 mi NNE 6.9 mph - N/A   Scattered Clouds
9:55 PM 25.9 °F 19.2 °F 21.2 °F 82% 30.16 in 10.0 mi North 5.8 mph - N/A   Overcast
10:15 PM 26.4 °F 20.9 °F 21.6 °F 82% 30.15 in 10.0 mi NNE 4.6 mph - N/A   Mostly Cloudy
10:35 PM 26.2 °F - 21.0 °F 81% 30.16 in 10.0 mi Calm Calm - N/A   Scattered Clouds
10:55 PM 26.1 °F - 21.2 °F 82% 30.16 in 10.0 mi Calm Calm - N/A   Scattered Clouds
11:15 PM 25.0 °F 19.3 °F 20.3 °F 82% 30.14 in 10.0 mi NNE 4.6 mph - N/A   Scattered Clouds
11:35 PM 24.3 °F 17.3 °F 20.3 °F 85% 30.14 in 10.0 mi NE 5.8 mph - N/A   Clear
11:55 PM 24.3 °F 19.9 °F 20.3 °F 85% 30.14 in 10.0 mi NE 3.5 mph - N/A   Clear